VIV1105 MMMD-MMMX

Flight info

Callsign VIV1105
Flight time N/A
Altitude 36000
Route VIVEP1E VIVEP UT24 UBVOV UT101 ENAGA ENAGA3A
Aircraft A320/M-SDE3FGHIRWY/LB1

Departure

Time 2026-05-03 22:39
Airport Manuel Crescencio Rejón International Airport (MMMD)

Arrival

Time N/A
Airport Mexico City Benito Juárez International Airport (MMMX)
Time Latitude Longitude Altitude Speed Heading
2026-05-03 21:35 20.93477 -89.66195 45 ft 0 kts 271°
2026-05-03 22:24 20.93477 -89.66194 45 ft 1 kts 271°
2026-05-03 22:24 20.93477 -89.66168 45 ft 4 kts 269°
2026-05-03 22:25 20.93481 -89.66141 45 ft 4 kts 234°
2026-05-03 22:25 20.93500 -89.66127 44 ft 3 kts 183°
2026-05-03 22:25 20.93504 -89.66127 45 ft 0 kts 181°
2026-05-03 22:30 20.93497 -89.66127 43 ft 2 kts 181°
2026-05-03 22:30 20.93477 -89.66128 45 ft 3 kts 181°
2026-05-03 22:30 20.93446 -89.66129 45 ft 6 kts 181°
2026-05-03 22:30 20.93398 -89.66130 45 ft 8 kts 181°
2026-05-03 22:31 20.93346 -89.66131 45 ft 7 kts 181°
2026-05-03 22:31 20.93298 -89.66132 44 ft 8 kts 181°
2026-05-03 22:31 20.93258 -89.66132 44 ft 6 kts 177°
2026-05-03 22:31 20.93224 -89.66101 43 ft 8 kts 112°
2026-05-03 22:32 20.93221 -89.66045 44 ft 6 kts 91°
2026-05-03 22:32 20.93215 -89.65995 45 ft 8 kts 109°
2026-05-03 22:32 20.93175 -89.65954 45 ft 8 kts 152°
2026-05-03 22:32 20.93121 -89.65924 44 ft 9 kts 152°
2026-05-03 22:33 20.93079 -89.65898 44 ft 8 kts 151°
2026-05-03 22:33 20.93037 -89.65874 44 ft 0 kts 151°
2026-05-03 22:34 20.93030 -89.65870 44 ft 3 kts 151°
2026-05-03 22:34 20.93003 -89.65854 43 ft 6 kts 151°
2026-05-03 22:35 20.92951 -89.65823 43 ft 10 kts 151°
2026-05-03 22:35 20.92877 -89.65786 43 ft 14 kts 170°
2026-05-03 22:35 20.92750 -89.65789 41 ft 22 kts 182°
2026-05-03 22:35 20.92581 -89.65791 43 ft 25 kts 180°
2026-05-03 22:36 20.92399 -89.65790 43 ft 27 kts 183°
2026-05-03 22:36 20.92225 -89.65798 45 ft 16 kts 181°
2026-05-03 22:36 20.92142 -89.65800 45 ft 12 kts 181°
2026-05-03 22:36 20.92091 -89.65776 45 ft 7 kts 145°
2026-05-03 22:37 20.92040 -89.65748 45 ft 9 kts 164°
2026-05-03 22:37 20.91998 -89.65776 46 ft 6 kts 251°
2026-05-03 22:37 20.92022 -89.65803 46 ft 6 kts 358°
2026-05-03 22:37 20.92032 -89.65802 46 ft 0 kts
2026-05-03 22:38 20.92077 -89.65800 45 ft 29 kts
2026-05-03 22:38 20.92529 -89.65791 42 ft 97 kts
2026-05-03 22:38 20.93381 -89.65775 53 ft 144 kts
2026-05-03 22:39 20.94399 -89.65759 610 ft 146 kts
2026-05-03 22:39 20.95424 -89.65744 1215 ft 148 kts
2026-05-03 22:39 20.96511 -89.65726 1565 ft 167 kts
2026-05-03 22:39 20.97745 -89.65702 1902 ft 189 kts
2026-05-03 22:40 20.99109 -89.65803 2182 ft 213 kts 341°
2026-05-03 22:40 21.00309 -89.66854 2622 ft 243 kts 302°
2026-05-03 22:40 21.00874 -89.68637 3136 ft 263 kts 280°
2026-05-03 22:40 21.01055 -89.70602 3963 ft 267 kts 276°
2026-05-03 22:41 21.01232 -89.72589 4868 ft 270 kts 276°
2026-05-03 22:41 21.01418 -89.74598 5641 ft 273 kts 276°
2026-05-03 22:41 21.01606 -89.76621 6392 ft 274 kts 276°
2026-05-03 22:41 21.01790 -89.78644 7268 ft 274 kts 276°
2026-05-03 22:42 21.01971 -89.80680 8102 ft 276 kts 276°
2026-05-03 22:42 21.02153 -89.82741 8839 ft 281 kts 275°
2026-05-03 22:42 21.02335 -89.84811 9622 ft 284 kts 275°
2026-05-03 22:42 21.02533 -89.86927 10246 ft 293 kts 278°
2026-05-03 22:43 21.02975 -89.89140 10436 ft 316 kts 283°
2026-05-03 22:43 21.03501 -89.91511 10640 ft 336 kts 283°
2026-05-03 22:43 21.04046 -89.93976 11150 ft 343 kts 283°
2026-05-03 22:43 21.04598 -89.96473 11800 ft 346 kts 283°
2026-05-03 22:44 21.05151 -89.98986 12475 ft 348 kts 283°
2026-05-03 22:44 21.05703 -90.01508 13127 ft 350 kts 283°
2026-05-03 22:44 21.06251 -90.04022 13684 ft 354 kts 283°
2026-05-03 22:44 21.06814 -90.06600 14242 ft 356 kts 283°
2026-05-03 22:45 21.07379 -90.09183 14872 ft 357 kts 283°
2026-05-03 22:45 21.07943 -90.11772 15423 ft 359 kts 283°
2026-05-03 22:45 21.08512 -90.14393 15925 ft 363 kts 283°
2026-05-03 22:45 21.09082 -90.17033 16463 ft 366 kts 282°
2026-05-03 22:46 21.09656 -90.19698 16969 ft 369 kts 282°
2026-05-03 22:46 21.10238 -90.22386 17512 ft 371 kts 282°
2026-05-03 22:46 21.10823 -90.25088 18039 ft 374 kts 282°
2026-05-03 22:46 21.11406 -90.27774 18528 ft 376 kts 282°
2026-05-03 22:47 21.12006 -90.30545 19025 ft 378 kts 282°
2026-05-03 22:47 21.12593 -90.33253 19511 ft 379 kts 283°
2026-05-03 22:47 21.13188 -90.36006 20007 ft 380 kts 283°
2026-05-03 22:47 21.13784 -90.38772 20501 ft 382 kts 283°
2026-05-03 22:48 21.14383 -90.41548 21013 ft 383 kts 283°
2026-05-03 22:48 21.14984 -90.44335 21498 ft 385 kts 283°
2026-05-03 22:48 21.15589 -90.47136 21942 ft 387 kts 283°
2026-05-03 22:48 21.16162 -90.49960 22379 ft 390 kts 279°
2026-05-03 22:49 21.16373 -90.52861 22817 ft 393 kts 270°
2026-05-03 22:49 21.16192 -90.55752 23231 ft 396 kts 266°
2026-05-03 22:49 21.15952 -90.58694 23637 ft 398 kts 266°
2026-05-03 22:49 21.15714 -90.61656 23992 ft 400 kts 266°
2026-05-03 22:50 21.15555 -90.63621 24233 ft 401 kts 266°
2026-05-03 22:50 21.15231 -90.67607 24722 ft 402 kts 266°
2026-05-03 22:50 21.14985 -90.70594 25084 ft 404 kts 266°
2026-05-03 22:50 21.14822 -90.72580 25320 ft 405 kts 266°
2026-05-03 22:51 21.14574 -90.75593 25668 ft 406 kts 266°
2026-05-03 22:51 21.14327 -90.78614 25995 ft 408 kts 266°
2026-05-03 22:51 21.13997 -90.82636 26436 ft 411 kts 266°
2026-05-03 22:51 21.13747 -90.85689 26759 ft 412 kts 266°
2026-05-03 22:52 21.13494 -90.88758 27062 ft 414 kts 266°
2026-05-03 22:52 21.13327 -90.90797 27273 ft 416 kts 266°
2026-05-03 22:52 21.13073 -90.93888 27604 ft 417 kts 266°
2026-05-03 22:52 21.12817 -90.96992 27938 ft 419 kts 266°
2026-05-03 22:53 21.12558 -91.00106 28281 ft 421 kts 266°
2026-05-03 22:53 21.12296 -91.03236 28613 ft 423 kts 266°
2026-05-03 22:53 21.12032 -91.06378 28945 ft 424 kts 266°
2026-05-03 22:53 21.11677 -91.10556 29390 ft 427 kts 265°
2026-05-03 22:54 21.11495 -91.12696 29613 ft 428 kts 265°
2026-05-03 22:54 21.11226 -91.15865 30063 ft 426 kts 266°
2026-05-03 22:54 21.10965 -91.18979 30493 ft 424 kts 266°
2026-05-03 22:54 21.10702 -91.22118 30905 ft 423 kts 266°
2026-05-03 22:55 21.10437 -91.25250 31308 ft 422 kts 266°
2026-05-03 22:55 21.10172 -91.28376 31713 ft 421 kts 266°
2026-05-03 22:55 21.09908 -91.31498 32128 ft 420 kts 266°
2026-05-03 22:55 21.09645 -91.34605 32547 ft 419 kts 266°
2026-05-03 22:56 21.09381 -91.37710 32970 ft 418 kts 265°
2026-05-03 22:56 21.09115 -91.40806 33406 ft 417 kts 265°
2026-05-03 22:56 21.08849 -91.43896 33839 ft 416 kts 265°
2026-05-03 22:56 21.08587 -91.46931 34228 ft 415 kts 265°
2026-05-03 22:57 21.08322 -91.50005 34591 ft 414 kts 265°
2026-05-03 22:57 21.08059 -91.53071 34940 ft 414 kts 265°
2026-05-03 22:57 21.07793 -91.56134 35272 ft 413 kts 265°
2026-05-03 22:57 21.07525 -91.59199 35612 ft 413 kts 265°
2026-05-03 22:58 21.07259 -91.62252 35911 ft 413 kts 264°
2026-05-03 22:58 21.06724 -91.68403 35996 ft 417 kts 264°
2026-05-03 22:59 21.06192 -91.74551 35997 ft 418 kts 264°
2026-05-03 22:59 21.05651 -91.80751 35999 ft 418 kts 264°
2026-05-03 23:00 21.05103 -91.86950 36004 ft 418 kts 264°
2026-05-03 23:00 21.04550 -91.93147 36002 ft 418 kts 264°
2026-05-03 23:01 21.04000 -91.99307 36011 ft 418 kts 264°
2026-05-03 23:01 21.03440 -92.05507 36009 ft 418 kts 264°
2026-05-03 23:02 21.02932 -92.11173 36008 ft 418 kts 264°
2026-05-03 23:02 21.02463 -92.16462 36010 ft 418 kts 264°
2026-05-03 23:03 21.02033 -92.21185 36008 ft 419 kts 264°
2026-05-03 23:03 21.01468 -92.27381 36009 ft 418 kts 264°
2026-05-03 23:04 21.00910 -92.33540 36006 ft 419 kts 264°